Flag for Norway Weather past 2 weeks in Narvik, Norway

Now
39 °F

Passing clouds.


Feels Like: 36 °F
Forecast: 32 / 41 °F
Wind: 5 mph from Southwest

Location: Evenes

Current Time: Mar 29, 2015 at 12:53:35 AM

Latest Report: Mar 29, 2015 at 12:20 AM


Visibility: N/A

Pressure: 29.42 "Hg

Humidity: 56%

Dew point: 25 °F

Location of NarvikLocation

Historic Weather in Narvik — Graph

°F

Narvik temperature yesterday

Maximum temperature yesterday: 41 °F (at 1:20 PM)
Minimum temperature yesterday: 30 °F (at 12:50 AM)
Average temperature yesterday: 35 °F

Past Weeks' High & Low Weather Summary

 TemperatureHumidityPressure
High48 °F (Mar 15, 2:50 PM)100% (Mar 17, 8:50 PM)30.83 "Hg (Mar 17, 8:50 PM)
Low10 °F (Mar 21, 6:50 AM)32% (Mar 24, 12:50 PM)29.15 "Hg (Mar 23, 4:50 PM)
Average33 °F77%30.07 "Hg
* Reported Mar 13 11:50 PM — Mar 28 11:20 PM, Narvik, Weather by CustomWeather, © 2015

Note: Actual official high and low records may vary slightly from our data, if they occured in-between our weather recording intervals... More about our weather records

Advertising

Narvik weather history for previous 24 hours

 ConditionsComfort  
Time TempWeatherWind HumidityBarometerVisibility
11:20 PM
Sat, Mar 28
39 °FOvercast.6 mph61%29.45 "HgN/A
10:50 PM39 °FPassing clouds.7 mph61%29.45 "HgN/A
10:20 PM39 °FOvercast.9 mph61%29.47 "HgN/A
9:50 PM37 °FOvercast.5 mph70%29.47 "HgN/A
9:20 PM37 °FOvercast.5 mph70%29.47 "HgN/A
8:50 PM36 °FOvercast.1 mph81%29.50 "HgN/A
8:20 PM36 °FMostly cloudy.2 mph81%29.50 "HgN/A
7:50 PM37 °FMostly cloudy.6 mph75%29.50 "HgN/A
7:20 PM37 °FOvercast.5 mph75%29.53 "HgN/A
6:50 PM37 °FPartly cloudy.3 mph75%29.53 "HgN/A
6:20 PM37 °FLight rain. Cloudy.7 mph75%29.53 "HgN/A
5:50 PM39 °FOvercast.2 mph61%29.53 "HgN/A
5:20 PM39 °FOvercast.6 mph61%29.53 "HgN/A
4:50 PM39 °FOvercast.8 mph61%29.53 "HgN/A
4:20 PM39 °FOvercast.5 mph61%29.53 "HgN/A
3:50 PM39 °FOvercast.5 mph61%29.53 "HgN/A
3:20 PM37 °FOvercast.5 mph70%29.53 "HgN/A
2:50 PM37 °FMostly cloudy.6 mph70%29.56 "HgN/A
2:20 PM39 °FPartly sunny.5 mph61%29.56 "HgN/A
1:50 PM41 °FPassing clouds.7 mph61%29.56 "HgN/A
1:20 PM41 °FPassing clouds.8 mph61%29.56 "HgN/A
11:50 AM39 °FPassing clouds.5 mph61%29.59 "HgN/A
10:50 AM36 °FPartly sunny.5 mph70%29.62 "HgN/A
9:50 AM34 °FPartly sunny.3 mph75%29.62 "HgN/A
7:50 AM32 °FPartly sunny.7 mph87%29.62 "HgN/A
6:50 AM32 °FLight snow. Broken clouds.9 mph80%29.62 "HgN/A
6:20 AM32 °FBroken clouds.10 mph80%29.62 "HgN/A
5:50 AM30 °FMore clouds than sun.10 mph93%29.62 "HgN/A
5:20 AM30 °FLight freezing rain. Overcast.10 mph93%29.65 "Hg5 mi
4:50 AM30 °FLight freezing rain. Overcast.9 mph93%29.65 "HgN/A
4:20 AM30 °FLight freezing rain. Mostly cloudy.12 mph93%29.65 "HgN/A
3:50 AM30 °FLight freezing rain. Partly cloudy.10 mph93%29.65 "HgN/A
3:20 AM30 °FLight freezing rain. Mostly cloudy.9 mph93%29.65 "Hg6 mi
2:50 AM30 °FLight freezing rain. Low clouds.10 mph93%29.65 "Hg4 mi
2:20 AM30 °FLight snow. Mostly cloudy.7 mph93%29.65 "Hg3 mi
1:50 AM30 °FLight snow. Partly cloudy.8 mph93%29.68 "Hg4 mi
12:50 AM30 °FLight snow. Partly cloudy.10 mph86%29.68 "Hg4 mi
Weather by CustomWeather, © 2015

See weather overviewHow to use our weather pages